Weather in Olmazor

Uzbekistan     40°58′04″N   68°51′13″E
temp.,
°C
wind,
m/s
gust,
m/s
humid.,
%
clouds,
%
prec.,
mm/h
press.,
hPa
HPBL,
m
11 may, tue
tue1123:00+18nw364782 0.0 1012107
02:00+17nw344926 0.0 101349
05:00+16nw224858 0.0 101421
08:00+20nw23410 0.0 1015312
11:00+26n55270 0.0 10151682
14:00+28n55190 0.0 10152132
17:00+28n55190 0.0 10142104
20:00+22n33330 0.0 101530
12 may, wed
wed1223:00+19nne33420 0.0 101541
02:00+17ne33480 0.0 101424
05:00+16nne33470 0.0 101428
08:00+21n22380 0.0 1014272
11:00+26nnw33280 0.0 10141774
14:00+29nnw44230 0.0 10122492
17:00+28n66270 0.0 10112503
20:00+22n612420 0.0 1012429
13 may, thu
thu1323:00+19nnw48460 0.0 1011174
02:00+16sw12490 0.0 101022
05:00+14s34500 0.0 101154
08:00+19s45370 0.0 1012435
11:00+24sse33290 0.0 1011943
14:00+28ne12260 0.0 10101731
17:00+29nnw44260 0.0 10092260
20:00+22n61136100 0.0 1010275
14 may, fri
fri1423:00+18nnw363181 0.0 1010126
02:00+16s33350 0.0 101036
05:00+14sse35420 0.0 101172
08:00+19sse34320 0.0 1012421
11:00+25sse22240 0.0 1012899
14:00+29nne22230 0.0 10111437
17:00+29n2324100 0.0 10091658
20:00+23nnw344040 0.0 100946
15 may, sat
sat1523:00+20nnw12490 0.0 100911
02:00+19ssw22490 0.0 100920
05:00+17ssw22450 0.0 100912
08:00+21ssw23360 0.0 1010343
11:00+28w11260 0.0 1009844
14:00+31nnw32230 0.0 10081612
17:00+31nw33210 0.0 10062177
20:00+24nnw34390 0.0 100746